Powrót do katalogu

QIANFAN-95

AktywnyŁącznośćPO
NORAD 66037·PAYLOAD·🇨🇳 China

Wystrzelony Oct 17, 2025 z Taiyuan Satellite Launch Center

Loading…

Następne Przeloty (najbliższe 24 godziny)

TLE

ŚwieżeSource: Space-Track

Epoka: Sep 14, 2026, 09:22 UTC

1 66037U 25233E   26257.39068521  .00000064  00000-0  80525-4 0  9997
2 66037  89.0051  33.6435 0001713  92.4611 267.6737 13.51021678 45524

Śledź QIANFAN-95 w czasie rzeczywistym z AllMySat

Download on the App Store